Date,TemperatureHighF,TemperatureAvgF,TemperatureLowF,DewpointHighF,DewpointAvgF,DewpointLowF,HumidityHigh,HumidityAvg,HumidityLow,PressureMaxIn,PressureMinIn,WindSpeedMaxMPH,WindSpeedAvgMPH,GustSpeedMaxMPH,PrecipitationSumIn
2013-1-1,18,6,-4,-1,-10,-18,50,47,43,30.31,30.19,3,1,6,0.00
2013-1-2,30,20,9,22,6,-9,77,56,43,30.16,30.04,6,2,11,0.00
2013-1-3,30,21,13,22,8,0,72,59,49,30.37,30.16,8,4,14,0.00
2013-1-4,37,25,13,27,14,0,86,64,40,30.31,30.16,6,3,13,0.00
2013-1-5,45,29,23,43,19,10,92,65,53,30.16,29.92,10,5,16,0.00
2013-1-6,30,22,13,16,9,2,80,57,43,30.31,30.07,10,4,13,0.00
2013-1-7,44,33,26,33,17,12,67,53,39,30.19,29.98,10,4,17,0.00
2013-1-8,49,33,22,27,22,16,84,65,41,30.04,29.83,8,3,13,0.00
2013-1-9,36,34,30,26,23,20,75,66,60,30.37,30.04,6,3,9,0.00
2013-1-10,40,35,29,33,25,18,88,69,41,30.37,29.72,4,2,8,0.00
2013-1-11,53,44,35,48,39,32,96,84,51,29.72,29.45,13,5,17,0.04
2013-1-12,53,25,14,35,8,-2,76,49,43,30.10,29.51,10,7,18,0.00
2013-1-13,19,12,8,10,-1,-8,77,57,45,30.31,30.07,11,6,14,0.00
2013-1-14,30,18,9,5,1,-2,61,48,33,30.42,30.31,6,2,9,0.00
2013-1-15,34,24,15,20,6,-1,61,47,34,30.37,30.07,8,3,12,0.00
2013-1-16,49,34,23,27,16,3,73,49,38,30.19,29.89,13,8,14,0.00
2013-1-17,36,26,17,20,9,2,68,49,34,30.42,30.19,6,2,9,0.00
2013-1-18,56,40,22,24,21,8,65,47,29,30.34,29.86,10,7,26,0.00
2013-1-19,51,41,19,25,21,0,53,44,33,30.25,29.80,10,7,21,0.00
2013-1-20,19,12,5,4,-3,-8,78,51,42,30.40,30.25,9,5,11,0.00
2013-1-21,9,3,-2,2,-3,-7,77,76,74,30.40,30.34,9,6,14,0.00
2013-1-22,20,10,1,6,-2,-5,74,60,39,30.40,30.28,5,2,7,0.00
2013-1-23,27,17,5,8,-1,-14,50,44,40,30.48,30.16,10,4,15,0.00
2013-1-24,20,10,2,-2,-11,-17,40,38,35,30.57,30.22,7,4,11,0.00
2013-1-25,35,25,13,14,8,-6,70,47,37,30.28,30.07,10,5,13,0.00
2013-1-26,35,21,8,7,-1,-11,42,37,31,30.31,30.13,8,5,12,0.00
2013-1-27,37,33,31,35,22,7,91,68,34,30.13,29.75,7,4,10,0.12
2013-1-28,47,37,34,46,36,33,97,96,91,29.89,29.57,5,3,8,0.08
2013-1-29,59,39,32,58,35,27,97,85,77,29.63,29.51,7,4,10,0.16
2013-1-30,32,23,18,28,18,7,96,81,60,29.83,29.51,16,9,22,0.00
2013-1-31,8,4,-2,2,-2,-8,76,76,76,30.34,30.04,10,7,20,0.00
2013-2-1,24,5,-5,8,-3,-11,76,69,49,30.37,30.01,12,3,12,0.00
2013-2-2,29,22,17,21,9,0,77,57,43,30.16,29.95,10,5,14,0.00
2013-2-3,34,25,17,20,9,4,77,51,36,30.16,29.78,14,5,21,0.00
2013-2-4,32,25,21,18,12,7,67,58,50,30.01,29.75,7,3,10,0.00
2013-2-5,44,31,21,26,19,11,77,61,48,29.92,29.80,12,4,16,0.00
2013-2-11,42,42,42,25,25,25,50,50,50,29.92,29.92,3,3,3,0.00
2013-2-12,42,42,42,25,25,25,50,50,50,29.92,29.92,3,3,3,0.00
2013-2-15,42,42,42,25,25,25,50,50,50,29.92,29.92,3,3,3,0.00
2013-2-18,42,42,42,25,25,25,50,50,50,29.92,29.92,3,3,3,0.00
2013-2-21,24,24,22,21,20,18,90,87,82,29.95,29.83,7,5,17,0.55
2013-2-22,33,24,22,30,16,9,91,74,55,29.98,29.75,13,4,17,0.04
2013-2-23,33,23,13,12,9,6,76,55,40,29.98,29.89,9,3,12,0.04
2013-2-24,45,28,14,21,14,4,73,56,37,30.07,29.92,6,1,7,0.04
2013-2-25,41,33,27,25,22,17,74,63,40,30.07,29.89,6,1,10,0.00
2013-2-26,32,30,28,30,26,19,97,86,60,29.89,29.69,12,3,13,0.00
2013-2-27,31,28,25,28,24,15,97,84,60,29.98,29.78,13,6,17,0.00
2013-2-28,33,27,22,19,16,13,77,65,50,30.16,29.98,10,5,15,0.00
2013-3-1,29,26,24,20,15,8,80,62,49,30.31,30.13,8,4,11,0.00
2013-3-2,33,24,14,12,10,7,76,54,42,30.31,30.16,8,2,10,0.00
2013-3-3,35,29,22,17,12,8,60,48,38,30.16,29.89,9,5,14,0.00
2013-3-4,37,32,28,27,23,17,81,68,53,29.92,29.75,11,4,16,0.00
2013-3-5,36,29,26,33,19,14,92,66,50,30.28,29.92,14,6,22,0.00
2013-3-6,32,25,19,17,13,9,69,59,44,30.40,30.28,9,3,14,0.00
2013-3-7,36,25,14,17,12,5,75,60,42,30.34,30.22,8,3,11,0.00
2013-3-8,45,35,25,28,21,15,76,59,40,30.25,30.01,11,4,15,0.08
2013-3-9,42,39,36,39,35,28,94,85,72,30.01,29.63,11,4,14,0.47
2013-3-10,38,35,31,37,33,30,97,94,86,29.80,29.63,13,4,15,0.43
2013-3-11,38,27,24,36,21,12,96,79,54,29.92,29.72,15,4,17,0.08
2013-3-12,43,28,20,42,15,9,97,60,47,30.22,29.92,15,6,22,0.00
2013-3-13,34,25,17,12,9,6,71,51,38,30.42,30.22,8,4,12,0.00
2013-3-14,54,38,26,32,20,11,64,50,38,30.31,30.04,10,2,14,0.00
2013-3-15,56,40,28,37,30,20,86,67,43,30.04,29.69,5,1,9,0.00
2013-3-16,37,33,27,33,20,12,86,60,43,30.19,29.78,12,5,16,0.00
2013-3-17,39,31,21,20,14,9,62,50,39,30.19,29.83,12,5,15,0.00
2013-3-18,46,30,22,45,17,4,97,59,42,29.98,29.72,19,7,24,0.12
2013-3-19,38,26,16,27,7,-1,87,44,33,30.25,29.95,12,6,17,0.04
2013-3-20,27,21,13,12,2,-4,63,43,35,30.34,30.13,14,6,19,0.00
2013-3-21,36,23,12,9,3,-3,55,43,31,30.13,29.95,8,2,12,0.00
2013-3-22,38,29,18,16,10,5,63,46,32,30.04,29.95,5,1,9,0.00
2013-3-23,38,32,27,25,15,10,78,51,33,30.13,29.98,9,3,11,0.00
2013-3-24,32,29,27,29,24,15,97,81,51,30.04,29.89,11,5,15,0.00
2013-3-25,37,31,27,27,19,13,97,65,39,30.25,29.95,11,5,15,0.04
2013-3-26,44,31,22,39,14,9,83,50,35,30.31,30.25,9,3,13,0.04
2013-3-27,47,35,22,27,16,9,75,48,31,30.31,30.22,7,1,10,0.00
2013-3-28,57,42,26,29,21,14,74,46,29,30.28,30.19,8,2,11,0.00
2013-3-29,63,48,29,35,24,18,76,43,25,30.25,30.10,9,3,13,0.00
2013-3-30,59,50,44,49,35,-100,86,59,33,30.10,29.86,9,2,11,0.08
2013-3-31,52,41,35,37,31,20,97,72,28,29.92,29.86,18,3,19,0.04
2013-4-2,24,21,19,12,9,7,67,59,51,30.31,30.28,0,0,0,0.00
2013-4-3,42,28,24,18,14,12,64,57,29,30.40,30.22,5,1,6,0.00
2013-4-4,42,37,33,15,11,9,40,34,29,30.22,30.16,8,4,10,0.00
2013-4-5,60,59,57,24,24,23,26,25,25,30.04,29.92,10,8,12,0.00
2013-4-6,67,60,55,37,33,28,38,36,33,29.80,29.54,17,9,21,0.00
2013-4-8,60,53,47,52,47,36,89,79,40,29.72,29.60,3,0,8,0.00
2013-4-9,59,50,42,57,48,40,93,90,83,29.83,29.72,8,3,11,0.43
2013-4-10,42,40,38,40,36,34,91,86,80,29.92,29.72,8,2,13,0.91
2013-4-11,49,38,36,48,34,26,97,84,65,29.75,29.60,9,4,13,0.16
2013-4-12,39,36,35,31,28,22,82,74,50,29.86,29.60,10,6,16,0.04
2013-4-13,34,32,29,19,18,16,63,57,50,29.98,29.95,9,4,13,0.00
2013-4-14,68,59,49,51,44,37,84,60,36,29.63,29.42,16,5,24,0.04
2013-4-15,51,42,37,39,28,19,77,57,40,29.92,29.63,16,3,17,0.08
2013-4-16,38,34,31,27,24,21,75,65,55,30.19,30.04,5,1,6,0.04
2013-4-17,45,42,40,44,40,38,97,94,91,29.95,29.69,10,5,18,1.93
2013-4-18,43,38,34,42,35,24,96,89,63,29.75,29.54,12,5,17,1.34
2013-4-19,43,34,30,25,20,16,68,58,33,29.86,29.69,13,9,19,0.04
2013-4-20,45,30,25,19,17,15,72,60,30,30.22,30.10,7,1,11,0.00
2013-4-21,67,54,42,36,26,19,48,36,24,30.22,30.04,16,6,22,0.00
2013-4-22,67,56,42,48,40,33,88,60,30,30.13,29.89,12,5,20,0.39
2013-4-23,37,35,34,33,28,26,86,77,73,30.10,30.04,11,6,16,0.12
2013-4-24,55,49,26,21,20,18,71,34,26,30.16,30.01,17,7,19,0.00
2013-4-25,62,45,33,25,24,23,71,49,24,30.22,30.10,9,3,14,0.00
2013-4-26,66,58,52,41,34,26,59,41,32,30.19,30.07,14,7,24,0.00
2013-4-27,63,53,45,43,38,35,78,60,37,30.22,29.98,8,2,11,0.00
2013-4-28,76,62,44,45,40,37,80,47,25,29.98,29.75,12,4,14,0.00
2013-4-29,76,61,57,47,45,43,66,56,34,29.78,29.54,9,4,14,0.00
2013-4-30,80,74,71,53,45,39,48,37,27,29.66,29.54,15,10,24,0.00
2013-5-2,36,35,34,33,32,30,87,86,86,30.34,30.31,10,8,14,0.75
2013-5-3,33,33,33,32,32,32,96,96,96,30.19,30.19,0,0,0,0.00
2013-7-31,80,72,69,62,58,55,77,62,44,30.10,30.01,4,1,7,0.00
2013-8-1,77,65,60,64,58,55,89,79,46,30.07,29.89,0,0,5,0.00
2013-10-16,50,47,41,41,36,31,82,68,53,30.01,29.92,10,5,13,0.00
2013-10-17,63,43,38,41,34,27,81,72,25,29.95,29.80,8,1,17,0.00
2013-10-18,51,42,37,32,30,21,80,63,30,30.07,29.95,8,3,13,0.00
2013-10-19,54,40,36,27,26,25,68,60,35,29.89,29.80,7,6,11,0.00
2013-10-22,42,39,37,36,30,22,86,71,51,30.07,29.86,7,3,10,0.04